[[{"header":{"parameterUnit":"m.s-1","parameterCategory":2,"la1":30.2991,"la2":30.254,"lo1":-89.0895,"lo2":-89.0444,"dy":0.0017,"dx":0.0017,"nx":28,"ny":28,"refTime":"2024-03-03T09:00:00:Z","depth":"0","parameterNumber":2,"parameterNumberName":"U-component_of_CURRENTS"},"data":[0,0,0,0,0,0,0,0,0,0,0,0,0,0,0,0,0,0,0,0,0,0,0,0,0,0,0,0,0,0,0,0,0,0,0,0,0,0,0,0,0,0,0,0,0,0,0,0,0,0,0,0,0,0,0,0,0,0,0.2399,0.2398,0,0.2357,0.2357,0.2356,0.2317,0.2317,0.2317,0.2316,0.2294,0.2293,0.2293,0,0,0,0,0,0,0,0,0,0,0,0,0,0.239,0.239,0.2399,0.2398,0.2398,0.2357,0.2357,0.2356,0.2317,0.2317,0.2316,0.2316,0.2294,0.2293,0.2293,0,0,0,0,0,0,0,0,0,0,0,0,0,0.2374,0.2391,0.2399,0.2375,0.2372,0.2358,0.2357,0.2356,0.2317,0.2317,0.2316,0.2316,0.2294,0.2293,0.2293,0.2301,0,0,0.2292,0.2291,0,0,0,0,0,0,0,0,0.2375,0.2375,0.2379,0.2376,0.2374,0.2343,0.2345,0.2339,0.2318,0.2337,0.2316,0.2316,0.2313,0.2311,0.2302,0.23,0.2299,0.2292,0.2291,0.2291,0.2291,0,0,0,0,0,0,0,0.2377,0.2376,0.2381,0.2378,0.2375,0.2348,0.2345,0.2343,0.2328,0.2335,0.2332,0.233,0.2312,0.2303,0.2302,0.2299,0.2292,0.2291,0.2291,0.2291,0.2336,0.2337,0,0,0,0,0,0,0.2388,0.2377,0.2382,0.238,0.2375,0.2349,0.2346,0.2352,0.2327,0.2323,0.2331,0.2329,0.2304,0.2302,0.2301,0.2335,0.2291,0.2291,0.2291,0.2334,0.2336,0.2337,0,0,0,0,0,0,0.2388,0.2389,0.2384,0.2378,0.2375,0.235,0.2357,0.2352,0.2349,0.2324,0.232,0.2335,0.2303,0.2301,0.2312,0.2333,0.2291,0.229,0.2332,0.2335,0.2337,0.2387,0,0,0,0,0,0,0.2389,0.239,0.2402,0.2379,0.2376,0.2392,0.2358,0.2351,0.2349,0.2346,0.2326,0.2323,0.2303,0.2312,0.2311,0.2332,0.229,0.2331,0.2333,0.2336,0.2384,0.2391,0.2397,0,0,0,0,0,0.2388,0.2404,0.2404,0.2404,0.2394,0.2393,0.239,0.2367,0.235,0.2361,0.2345,0.2324,0.2329,0.2313,0.2311,0.2332,0.2329,0.2333,0.2336,0.2381,0.239,0.2397,0,0,0,0,0,0,0.2406,0.2401,0.24,0.2414,0.2414,0.2388,0.2391,0.2377,0.2371,0.2368,0.2339,0.2336,0.2355,0.2341,0.2325,0.2355,0.2327,0.233,0.2362,0.237,0.2377,0.2373,0.229,0,0,0,0,0,0.2419,0.2426,0.2423,0.2435,0.2438,0.2418,0.2415,0.2405,0.2394,0.2389,0.2374,0.2365,0.2366,0.2366,0.2365,0.238,0.238,0.2395,0.2401,0.2407,0.2404,0.243,0.2438,0.2348,0.2348,0.2348,0,0,0.2425,0.2426,0.2429,0.2439,0.2432,0.2437,0.2415,0.242,0.2421,0.239,0.239,0.2389,0.2377,0.2393,0.2401,0.2384,0.2437,0.2411,0.2415,0.2409,0.2434,0.2442,0.245,0.235,0.235,0.2349,0,0,0.2435,0.2449,0.2456,0.2463,0.2467,0.2459,0.2466,0.2455,0.2453,0.246,0.2441,0.2453,0.2447,0.2445,0.2441,0.2486,0.2474,0.2491,0.2516,0.2542,0.2549,0.2555,0.2583,0.2592,0.2491,0.2491,0.2491,0,0.2445,0.2452,0.246,0.2469,0.2468,0.2471,0.2475,0.248,0.2474,0.2476,0.2469,0.2474,0.2469,0.2486,0.2501,0.25,0.2513,0.2484,0.2549,0.2556,0.2561,0.2588,0.2597,0.2494,0.2494,0.2493,0.2493,0,0.2454,0.2464,0.2471,0.2481,0.2488,0.2496,0.2504,0.2518,0.2515,0.2514,0.2538,0.2537,0.2536,0.2547,0.2535,0.2575,0.2573,0.2557,0.2527,0.2573,0.2599,0.2607,0.2498,0.2497,0.2496,0.2495,0,0,0.2453,0.2472,0.2473,0.2474,0.2493,0.2495,0.2517,0.253,0.2542,0.2557,0.257,0.2588,0.2592,0.259,0.2589,0.2614,0.2673,0.2605,0.2605,0.2628,0.2738,0.2741,0.275,0.2671,0.2672,0.2673,0.2746,0,0.2453,0.2463,0.2473,0.248,0.2482,0.25,0.2516,0.2536,0.2554,0.2577,0.2598,0.2615,0.2607,0.2616,0.2642,0.2665,0.2694,0.2655,0.2693,0.2694,0.2687,0.2759,0.269,0.275,0.2754,0.2755,0.2756,0,0.2445,0.2454,0.2455,0.247,0.2474,0.2483,0.2507,0.2527,0.2573,0.259,0.2621,0.2636,0.2679,0.2665,0.273,0.2707,0.2726,0.2745,0.2747,0.2733,0.2712,0.2701,0.2764,0.2707,0.2768,0.2767,0.2766,0,0.2412,0.2433,0.2428,0.2434,0.246,0.2467,0.2487,0.2527,0.2545,0.2606,0.2627,0.2676,0.2706,0.2741,0.2784,0.276,0.2859,0.2825,0.2847,0.2848,0.2787,0.278,0.2791,0.2871,0.2871,0.2871,0.2871,0,0.239,0.2388,0.2414,0.2413,0.2417,0.2448,0.2461,0.2498,0.2547,0.2577,0.2631,0.2668,0.2728,0.2787,0.2809,0.2869,0.2881,0.2869,0.2873,0.2805,0.2799,0.2743,0.27,0.2873,0.2873,0.2872,0.2872,0,0.2347,0.2361,0.2361,0.2391,0.2396,0.2402,0.2435,0.2451,0.2514,0.2559,0.258,0.2676,0.2764,0.2825,0.2902,0.2907,0.288,0.2968,0.2892,0.2885,0.2832,0.2794,0.2676,0.2588,0.2998,0.2998,0.2999,0,0.2323,0.2318,0.2335,0.2331,0.2342,0.2355,0.2362,0.2421,0.2447,0.256,0.2582,0.2694,0.2755,0.2886,0.295,0.3014,0.2899,0.2965,0.2901,0.284,0.28,0.2653,0.2576,0.2847,0.2847,0.2846,0.2845,0,0.2288,0.2292,0.2293,0.2286,0.2286,0.2279,0.2307,0.2316,0.24,0.2443,0.2528,0.2592,0.277,0.2826,0.294,0.2965,0.2824,0.2954,0.2904,0.2704,0.2528,0.2441,0.2793,0.284,0.284,0.2841,0.2841,0.2841,0.2263,0.225,0.225,0.2224,0.2224,0.2198,0.215,0.2201,0.2217,0.2257,0.2412,0.2463,0.2669,0.2831,0.2853,0.2875,0.2799,0.2794,0.2763,0.2627,0.2504,0.2854,0.2894,0.2895,0.2896,0.2896,0.2897,0,0.2214,0.2198,0.2186,0.2143,0.2089,0.2112,0.2096,0.203,0.2005,0.2128,0.2181,0.2346,0.247,0.2624,0.2781,0.2705,0.2554,0.2621,0.2396,0.2336,0.2681,0.264,0.2608,0.2608,0.2608,0.2608,0.2608,0.2608,0.219,0.2143,0.2115,0.2001,0.1962,0.1839,0.1787,0.174,0.1782,0.1809,0.1885,0.2006,0.2289,0.2547,0.2577,0.2537,0.2333,0.2231,0.2185,0.2454,0.2466,0.2478,0.2431,0.2356,0.2355,0.1746,0.1742,0.1739]},{"header":{"parameterUnit":"m.s-1","parameterCategory":2,"la1":30.2991,"la2":30.254,"lo1":-89.0895,"lo2":-89.0444,"dy":0.0017,"dx":0.0017,"nx":28,"ny":28,"refTime":"2024-03-03T09:00:00:Z","depth":"0","parameterNumber":3,"parameterNumberName":"V-component_of_CURRENTS"},"data":[0,0,0,0,0,0,0,0,0,0,0,0,0,0,0,0,0,0,0,0,0,0,0,0,0,0,0,0,0,0,0,0,0,0,0,0,0,0,0,0,0,0,0,0,0,0,0,0,0,0,0,0,0,0,0,0,0,0,0.0018,0.0017,0,-0.0065,-0.0066,-0.0067,-0.0113,-0.0113,-0.0113,-0.0113,-0.0199,-0.0201,-0.0203,0,0,0,0,0,0,0,0,0,0,0,0,0,0.0079,0.0079,0.0018,0.0017,0.0016,-0.0065,-0.0066,-0.0068,-0.0113,-0.0113,-0.0113,-0.0113,-0.0198,-0.0201,-0.0203,0,0,0,0,0,0,0,0,0,0,0,0,0,0.003,0.0078,0.0018,-0.0016,-0.002,-0.0065,-0.0066,-0.0068,-0.0113,-0.0113,-0.0113,-0.0113,-0.0197,-0.0201,-0.0204,-0.0221,0,0,-0.0214,-0.0215,0,0,0,0,0,0,0,0,0.0033,0.0028,-0.001,-0.0014,-0.0019,-0.0079,-0.0076,-0.0119,-0.0113,-0.0078,-0.0113,-0.0113,-0.0159,-0.0165,-0.0181,-0.0225,-0.0229,-0.0214,-0.0216,-0.0218,-0.0218,0,0,0,0,0,0,0,0.0036,0.0031,-0.0016,-0.0011,-0.0016,-0.0048,-0.0054,-0.0085,-0.0117,-0.0081,-0.0085,-0.0093,-0.0161,-0.0178,-0.0183,-0.023,-0.0214,-0.0217,-0.0219,-0.022,-0.0286,-0.0286,0,0,0,0,0,0,0.005,0.0034,-0.0013,-0.0018,0.0008,-0.0048,-0.0056,-0.006,-0.0117,-0.0125,-0.0093,-0.0095,-0.0172,-0.0179,-0.0186,-0.0196,-0.0218,-0.0221,-0.0223,-0.0286,-0.0286,-0.0286,0,0,0,0,0,0,0.0052,0.0047,-0.001,0.0006,-0.0003,-0.0049,-0.0053,-0.0061,-0.0074,-0.0126,-0.0134,-0.0097,-0.0172,-0.0182,-0.0206,-0.02,-0.0222,-0.0225,-0.0287,-0.0286,-0.0286,-0.0225,0,0,0,0,0,0,0.0054,0.0048,0.0052,0.0007,-0.0004,-0.0027,-0.0053,-0.0063,-0.0079,-0.0083,-0.0132,-0.014,-0.0173,-0.0201,-0.0209,-0.0205,-0.0228,-0.0287,-0.0286,-0.0286,-0.0228,-0.0223,-0.0219,0,0,0,0,0,0.0057,0.0064,0.0053,0.0047,0.0003,-0.0026,-0.0034,-0.0068,-0.0079,-0.0081,-0.0113,-0.0139,-0.0204,-0.0203,-0.0213,-0.021,-0.0287,-0.0287,-0.0286,-0.0229,-0.0224,-0.0219,0,0,0,0,0,0,0.0095,0.0059,0.0046,0.0043,0.0015,-0.0034,-0.0039,-0.0061,-0.0089,-0.0091,-0.0137,-0.0148,-0.0168,-0.0196,-0.0194,-0.0228,-0.025,-0.0251,-0.0203,-0.0198,-0.0194,-0.0177,-0.023,0,0,0,0,0,0.0106,0.0101,0.0062,0.0061,0.0049,0.0008,-0.0008,-0.003,-0.0062,-0.0075,-0.011,-0.0145,-0.0175,-0.0191,-0.0222,-0.024,-0.0264,-0.0245,-0.024,-0.0236,-0.0229,-0.0259,-0.0256,-0.0284,-0.0284,-0.0284,0,0,0.0119,0.01,0.0097,0.0068,0.0044,0.0034,-0.0002,-0.0019,-0.0027,-0.008,-0.0096,-0.0131,-0.0176,-0.0196,-0.0208,-0.0219,-0.024,-0.0236,-0.0232,-0.0227,-0.0258,-0.0255,-0.0253,-0.0284,-0.0284,-0.0284,0,0,0.0144,0.013,0.0133,0.0114,0.0084,0.0058,0.0057,0.0014,-0.0002,-0.0024,-0.0063,-0.009,-0.0138,-0.0167,-0.0188,-0.0179,-0.0216,-0.0191,-0.0156,-0.0184,-0.0182,-0.018,-0.02,-0.0201,-0.0188,-0.0188,-0.0188,0,0.0164,0.0161,0.013,0.0128,0.0119,0.0074,0.0077,0.0053,0.0008,-0.0,-0.0019,-0.0084,-0.0123,-0.0146,-0.0146,-0.0168,-0.0188,-0.017,-0.0178,-0.0177,-0.0176,-0.0197,-0.0198,-0.0185,-0.0186,-0.0186,-0.0186,0,0.0186,0.0186,0.0187,0.0172,0.016,0.0155,0.012,0.0108,0.0083,0.0054,0.0027,-0.0027,-0.0063,-0.0082,-0.0113,-0.0127,-0.0144,-0.0168,-0.0187,-0.0169,-0.0193,-0.0195,-0.0181,-0.0182,-0.0183,-0.0184,0,0,0.023,0.0208,0.021,0.0212,0.0184,0.0177,0.0172,0.0152,0.0155,0.0107,0.0104,0.0044,0.0014,-0.0011,-0.0055,-0.0084,-0.0099,-0.0119,-0.0122,-0.0132,-0.0156,-0.0156,-0.0159,-0.0125,-0.0125,-0.0125,-0.0171,0,0.0259,0.0268,0.0249,0.0263,0.0265,0.0235,0.0238,0.0216,0.0189,0.0175,0.0118,0.0095,0.0041,0.0027,-0.001,-0.0075,-0.0104,-0.0084,-0.0178,-0.018,-0.0177,-0.0162,-0.011,-0.0146,-0.0174,-0.0175,-0.0175,0,0.0291,0.0292,0.0311,0.0311,0.0312,0.0317,0.0319,0.0312,0.0281,0.0259,0.0222,0.0177,0.013,0.0082,-0.0015,0.0,-0.007,-0.0124,-0.0128,-0.015,-0.0185,-0.0171,-0.015,-0.0259,-0.0179,-0.0179,-0.0179,0,0.0338,0.0339,0.0358,0.0357,0.035,0.0362,0.036,0.0342,0.0349,0.0313,0.0315,0.0244,0.022,0.0123,0.0013,-0.0003,-0.0092,-0.013,-0.0197,-0.0197,-0.0183,-0.0181,-0.0271,-0.0199,-0.0198,-0.0198,-0.0198,0,0.0378,0.0395,0.0384,0.0396,0.0432,0.0409,0.0443,0.0428,0.0422,0.0446,0.0364,0.0372,0.023,0.0161,0.0044,-0.0073,-0.007,-0.0183,-0.0208,-0.016,-0.0156,-0.0275,-0.0368,-0.02,-0.02,-0.0199,-0.0199,0,0.0428,0.0418,0.0444,0.0447,0.0455,0.0481,0.0503,0.0524,0.0508,0.0538,0.0534,0.0472,0.0389,0.0245,0.0096,-0.0017,-0.0208,-0.0186,-0.0114,-0.013,-0.0299,-0.039,-0.0503,-0.0599,-0.0267,-0.0267,-0.0268,0,0.0454,0.0471,0.049,0.0512,0.0518,0.0549,0.0577,0.057,0.0599,0.0609,0.0635,0.0571,0.0548,0.0331,0.0129,-0.0066,-0.0207,-0.0167,-0.0194,-0.0294,-0.0414,-0.0454,-0.0531,-0.0151,-0.015,-0.0149,-0.0149,0,0.0506,0.0513,0.0531,0.0576,0.061,0.0648,0.0686,0.0725,0.0733,0.0769,0.0808,0.0797,0.0611,0.0457,0.0187,0.0035,-0.0247,-0.0161,-0.0284,-0.0345,-0.0375,-0.0482,-0.0136,-0.0143,-0.0144,-0.0144,-0.0144,-0.0145,0.055,0.0573,0.0597,0.064,0.0681,0.0738,0.0773,0.083,0.0897,0.0958,0.0952,0.0975,0.0762,0.0412,0.0179,-0.0176,-0.0229,-0.0277,-0.0383,-0.0414,-0.0499,-0.0137,-0.0163,-0.0164,-0.0165,-0.0165,-0.0166,0,0.0594,0.0614,0.0657,0.0704,0.0748,0.0764,0.0838,0.0878,0.0967,0.107,0.1116,0.108,0.0792,0.0458,0.0006,-0.0299,-0.0447,-0.0489,-0.0536,-0.0613,-0.0291,-0.0277,-0.0305,-0.0305,-0.0304,-0.0304,-0.0304,-0.0304,0.0617,0.0656,0.0667,0.0743,0.0781,0.0831,0.087,0.0949,0.1034,0.1159,0.123,0.1261,0.1102,0.0292,-0.0288,-0.0489,-0.0754,-0.0791,-0.0974,-0.0742,-0.073,-0.0718,-0.0724,-0.0845,-0.0845,-0.1215,-0.1218,-0.1221]}],[{"header":{"parameterUnit":"m.s-1","parameterCategory":2,"la1":30.2991,"la2":30.254,"lo1":-89.0895,"lo2":-89.0444,"dy":0.0017,"dx":0.0017,"nx":28,"ny":28,"refTime":"2024-03-03T09:00:00:Z","depth":"2","parameterNumber":2,"parameterNumberName":"U-component_of_CURRENTS"},"data":[0,0,0,0,0,0,0,0,0,0,0,0,0,0,0,0,0,0,0,0,0,0,0,0,0,0,0,0,0,0,0,0,0,0,0,0,0,0,0,0,0,0,0,0,0,0,0,0,0,0,0,0,0,0,0,0,0,0,0.2428,0.2428,0,0.2379,0.2378,0.2378,0.2333,0.2332,0.2332,0.2332,0.2319,0.2319,0.2319,0,0,0,0,0,0,0,0,0,0,0,0,0,0.2419,0.242,0.2428,0.2428,0.2427,0.2379,0.2378,0.2378,0.2333,0.2332,0.2332,0.2332,0.2319,0.2319,0.2319,0,0,0,0,0,0,0,0,0,0,0,0,0,0.24,0.242,0.2428,0.2401,0.2398,0.238,0.2378,0.2377,0.2333,0.2332,0.2332,0.2331,0.2319,0.2319,0.2319,0.2328,0,0,0.2319,0.2319,0,0,0,0,0,0,0,0,0.2401,0.24,0.2405,0.2403,0.24,0.2364,0.2371,0.2363,0.2333,0.2355,0.2332,0.2331,0.234,0.2338,0.2325,0.2327,0.2327,0.2319,0.2319,0.2319,0.2319,0,0,0,0,0,0,0,0.2402,0.2401,0.2406,0.2405,0.2402,0.237,0.2367,0.2368,0.2349,0.2353,0.235,0.2349,0.2338,0.2325,0.2325,0.2327,0.2319,0.2319,0.2319,0.2319,0.2371,0.2372,0,0,0,0,0,0,0.2418,0.2403,0.2408,0.2405,0.2402,0.2371,0.2367,0.2374,0.2348,0.2344,0.235,0.2347,0.2326,0.2325,0.2324,0.2363,0.2319,0.2319,0.2319,0.2369,0.2371,0.2373,0,0,0,0,0,0,0.2418,0.2419,0.241,0.2404,0.2401,0.2372,0.2379,0.2373,0.237,0.2346,0.2342,0.2354,0.2325,0.2324,0.234,0.2361,0.2319,0.2319,0.2368,0.237,0.2372,0.2421,0,0,0,0,0,0,0.2418,0.242,0.2432,0.2406,0.2402,0.2417,0.238,0.2373,0.237,0.2367,0.2348,0.2346,0.2325,0.234,0.2339,0.236,0.2318,0.2366,0.2369,0.2371,0.2418,0.2425,0.2431,0,0,0,0,0,0.2418,0.2433,0.2433,0.2433,0.242,0.2419,0.2414,0.2389,0.2371,0.2381,0.2366,0.2347,0.2357,0.2341,0.234,0.2361,0.2365,0.2368,0.2371,0.2415,0.2423,0.243,0,0,0,0,0,0,0.2434,0.2429,0.2429,0.2442,0.2443,0.2412,0.2414,0.2401,0.2394,0.2391,0.2363,0.2361,0.2383,0.2371,0.2354,0.2386,0.2359,0.2362,0.2392,0.24,0.2406,0.2401,0.2318,0,0,0,0,0,0.2447,0.2455,0.2452,0.2463,0.2467,0.2445,0.2442,0.243,0.2419,0.2414,0.24,0.2392,0.2395,0.2396,0.2396,0.2414,0.2414,0.2429,0.2435,0.2441,0.2438,0.2463,0.2471,0.2383,0.2383,0.2383,0,0,0.2453,0.2454,0.2457,0.2468,0.246,0.2463,0.2441,0.2445,0.2446,0.2417,0.2417,0.2417,0.2406,0.2423,0.2432,0.2415,0.2471,0.2445,0.2449,0.2443,0.2467,0.2476,0.2483,0.2385,0.2385,0.2385,0,0,0.2463,0.2477,0.2484,0.2491,0.2496,0.2486,0.2495,0.2483,0.2479,0.2488,0.2468,0.2482,0.2478,0.2475,0.2473,0.2519,0.2507,0.2524,0.2548,0.2573,0.258,0.2587,0.2614,0.2622,0.2524,0.2524,0.2524,0,0.2471,0.2479,0.2488,0.2497,0.2496,0.25,0.2503,0.2507,0.2501,0.2504,0.2498,0.2504,0.25,0.2517,0.2532,0.2532,0.2545,0.2517,0.2581,0.2587,0.2592,0.2619,0.2627,0.2527,0.2526,0.2526,0.2526,0,0.2481,0.2491,0.2498,0.2508,0.2516,0.2523,0.2532,0.2546,0.2543,0.2541,0.2567,0.2566,0.2566,0.2578,0.2565,0.2606,0.2604,0.2589,0.2558,0.2604,0.2629,0.2637,0.2531,0.253,0.2529,0.2528,0,0,0.2479,0.2499,0.25,0.2502,0.252,0.2522,0.2544,0.2557,0.2569,0.2585,0.2598,0.2616,0.262,0.2619,0.2619,0.2643,0.2701,0.2635,0.2635,0.2657,0.2765,0.2766,0.2774,0.27,0.2701,0.2702,0.2773,0,0.2479,0.2489,0.25,0.2507,0.2509,0.2528,0.2543,0.2563,0.2582,0.2605,0.2625,0.2642,0.2636,0.2645,0.267,0.2693,0.2722,0.2684,0.2721,0.2722,0.2713,0.2783,0.2491,0.253,0.278,0.2781,0.2782,0,0.2471,0.2481,0.2482,0.2497,0.2501,0.251,0.2534,0.2554,0.26,0.2617,0.2647,0.2663,0.2706,0.2693,0.2756,0.2734,0.2753,0.2771,0.2774,0.2758,0.2737,0.2522,0.2534,0.2795,0.2794,0.2793,0.2792,0,0.2439,0.246,0.2455,0.2461,0.2487,0.2494,0.2514,0.2554,0.2572,0.2632,0.2653,0.2702,0.2732,0.2766,0.2809,0.2786,0.2883,0.285,0.287,0.287,0.2619,0.2596,0.2895,0.2895,0.2895,0.2895,0.2895,0,0.2417,0.2415,0.2441,0.244,0.2444,0.2475,0.2488,0.2525,0.2574,0.2603,0.2657,0.2694,0.2754,0.2811,0.2834,0.2891,0.2904,0.2891,0.2894,0.2632,0.261,0.2828,0.282,0.2897,0.2897,0.2896,0.2896,0,0.2374,0.2388,0.2388,0.2418,0.2423,0.2429,0.2462,0.2478,0.2541,0.2585,0.2606,0.2701,0.2788,0.2848,0.2923,0.2928,0.2975,0.2987,0.2688,0.2656,0.2935,0.2929,0.3011,0.3012,0.3012,0.3013,0.3013,0,0.235,0.2345,0.2363,0.2359,0.2369,0.2383,0.239,0.2449,0.2475,0.2586,0.2608,0.2718,0.2771,0.2898,0.2905,0.2952,0.3016,0.2747,0.2653,0.2956,0.2951,0.2943,0.2935,0.2336,0.2331,0.2327,0.2324,0,0.2315,0.2319,0.2321,0.2314,0.2314,0.2308,0.2335,0.2344,0.2428,0.2464,0.2548,0.2604,0.2725,0.2653,0.2742,0.273,0.2716,0.2669,0.3043,0.2377,0.2332,0.2324,0.2335,0.2286,0.229,0.2293,0.2295,0.2296,0.229,0.2278,0.2278,0.2252,0.2253,0.2228,0.218,0.2221,0.2231,0.2255,0.2397,0.24,0.2446,0.2439,0.2393,0.2375,0.2569,0.2449,0.2455,0.2468,0.2402,0.2363,0.231,0.2314,0.2317,0.232,0.2323,0,0.2229,0.2227,0.2215,0.2172,0.2116,0.2142,0.2126,0.2067,0.2024,0.2098,0.2117,0.1984,0.1929,0.201,0.1906,0.195,0.186,0.189,0.1717,0.1757,0.1792,0.1685,0.1407,0.1404,0.1402,0.14,0,0,0.2199,0.2151,0.2125,0.2018,0.1989,0.1883,0.1833,0.1789,0.1803,0.1759,0.1734,0.1821,0.1941,0.1638,0.1601,0.1489,0.1609,0.1431,0.2161,0.1995,0.2027,0.211,0.1993,0,0,0,0,0]},{"header":{"parameterUnit":"m.s-1","parameterCategory":2,"la1":30.2991,"la2":30.254,"lo1":-89.0895,"lo2":-89.0444,"dy":0.0017,"dx":0.0017,"nx":28,"ny":28,"refTime":"2024-03-03T09:00:00:Z","depth":"2","parameterNumber":3,"parameterNumberName":"V-component_of_CURRENTS"},"data":[0,0,0,0,0,0,0,0,0,0,0,0,0,0,0,0,0,0,0,0,0,0,0,0,0,0,0,0,0,0,0,0,0,0,0,0,0,0,0,0,0,0,0,0,0,0,0,0,0,0,0,0,0,0,0,0,0,0,-0.0008,-0.0009,0,-0.0095,-0.0096,-0.0097,-0.0146,-0.0146,-0.0146,-0.0146,-0.0228,-0.023,-0.0232,0,0,0,0,0,0,0,0,0,0,0,0,0,0.0054,0.0053,-0.0008,-0.0009,-0.001,-0.0095,-0.0096,-0.0097,-0.0146,-0.0146,-0.0146,-0.0146,-0.0227,-0.023,-0.0232,0,0,0,0,0,0,0,0,0,0,0,0,0,0.0002,0.0053,-0.0008,-0.0044,-0.0048,-0.0095,-0.0096,-0.0098,-0.0146,-0.0146,-0.0146,-0.0146,-0.0227,-0.023,-0.0233,-0.025,0,0,-0.0242,-0.0244,0,0,0,0,0,0,0,0,0.0005,-0.0,-0.0038,-0.0041,-0.0046,-0.0109,-0.0104,-0.0148,-0.0146,-0.011,-0.0146,-0.0147,-0.0187,-0.0193,-0.0211,-0.0254,-0.0257,-0.0243,-0.0245,-0.0246,-0.0247,0,0,0,0,0,0,0,0.0009,0.0003,-0.0043,-0.0039,-0.0044,-0.0077,-0.0084,-0.0113,-0.0147,-0.0113,-0.0117,-0.0125,-0.0189,-0.0208,-0.0213,-0.0259,-0.0243,-0.0245,-0.0247,-0.0249,-0.0312,-0.0311,0,0,0,0,0,0,0.0025,0.0007,-0.0041,-0.0046,-0.0019,-0.0078,-0.0086,-0.0089,-0.0147,-0.0156,-0.0125,-0.0127,-0.0202,-0.021,-0.0216,-0.0225,-0.0246,-0.0249,-0.0251,-0.0312,-0.0312,-0.0311,0,0,0,0,0,0,0.0027,0.0022,-0.0037,-0.0021,-0.0031,-0.0078,-0.0083,-0.0091,-0.0105,-0.0156,-0.0165,-0.0128,-0.0203,-0.0212,-0.0234,-0.0229,-0.025,-0.0253,-0.0312,-0.0312,-0.0311,-0.0251,0,0,0,0,0,0,0.0029,0.0023,0.0027,-0.002,-0.0031,-0.0055,-0.0083,-0.0093,-0.0109,-0.0113,-0.0162,-0.017,-0.0204,-0.0229,-0.0237,-0.0233,-0.0256,-0.0312,-0.0312,-0.0312,-0.0253,-0.0249,-0.0245,0,0,0,0,0,0.0031,0.0038,0.0028,0.0022,-0.0024,-0.0054,-0.0063,-0.0098,-0.0109,-0.0111,-0.0143,-0.0169,-0.0233,-0.0232,-0.0241,-0.0238,-0.0313,-0.0312,-0.0312,-0.0255,-0.0249,-0.0245,0,0,0,0,0,0,0.0068,0.0033,0.002,0.0016,-0.0011,-0.0062,-0.0068,-0.009,-0.0119,-0.0121,-0.0166,-0.0177,-0.0195,-0.0224,-0.0221,-0.0255,-0.0277,-0.0278,-0.023,-0.0226,-0.0221,-0.0204,-0.0258,0,0,0,0,0,0.0079,0.0075,0.0036,0.0035,0.0023,-0.002,-0.0035,-0.0058,-0.0091,-0.0104,-0.0138,-0.0173,-0.0203,-0.0218,-0.0249,-0.0266,-0.0289,-0.027,-0.0266,-0.0262,-0.0255,-0.0284,-0.0282,-0.031,-0.031,-0.031,0,0,0.0093,0.0074,0.0071,0.0042,0.0017,0.0006,-0.0029,-0.0047,-0.0055,-0.0107,-0.0124,-0.0159,-0.0203,-0.0224,-0.0235,-0.0245,-0.0266,-0.0261,-0.0258,-0.0253,-0.0284,-0.0281,-0.0278,-0.0309,-0.0309,-0.0309,0,0,0.0117,0.0103,0.0106,0.0087,0.0057,0.003,0.0031,-0.0013,-0.003,-0.0052,-0.009,-0.0117,-0.0164,-0.0194,-0.0215,-0.0205,-0.0242,-0.0217,-0.0182,-0.021,-0.0208,-0.0207,-0.0226,-0.0227,-0.0215,-0.0214,-0.0214,0,0.0136,0.0134,0.0103,0.0101,0.0092,0.0048,0.0051,0.0025,-0.0019,-0.0028,-0.0046,-0.0111,-0.0149,-0.0173,-0.0172,-0.0194,-0.0214,-0.0197,-0.0204,-0.0203,-0.0202,-0.0223,-0.0224,-0.0211,-0.0212,-0.0212,-0.0212,0,0.0159,0.0158,0.016,0.0145,0.0132,0.0127,0.0092,0.008,0.0056,0.0027,0.0,-0.0054,-0.009,-0.0109,-0.014,-0.0154,-0.017,-0.0194,-0.0213,-0.0195,-0.0219,-0.0221,-0.0207,-0.0208,-0.0209,-0.021,0,0,0.0202,0.018,0.0183,0.0184,0.0157,0.0149,0.0144,0.0124,0.0127,0.0079,0.0076,0.0017,-0.0013,-0.0039,-0.0082,-0.011,-0.0125,-0.0145,-0.0148,-0.0158,-0.0182,-0.0182,-0.0185,-0.0151,-0.0151,-0.0151,-0.0197,0,0.0231,0.0239,0.0221,0.0234,0.0236,0.0206,0.0209,0.0187,0.016,0.0146,0.0089,0.0066,0.0014,-0.0,-0.0037,-0.0102,-0.013,-0.011,-0.0204,-0.0206,-0.0203,-0.0188,-0.0196,-0.0237,-0.02,-0.0201,-0.0201,0,0.0263,0.0264,0.0282,0.0282,0.0283,0.0288,0.0289,0.0282,0.0251,0.023,0.0193,0.0148,0.0102,0.0054,-0.0042,-0.0027,-0.0096,-0.0151,-0.0154,-0.0177,-0.0211,-0.0251,-0.0243,-0.0206,-0.0205,-0.0205,-0.0205,0,0.031,0.031,0.0329,0.0328,0.032,0.0333,0.033,0.0312,0.0319,0.0283,0.0285,0.0215,0.0191,0.0095,-0.0015,-0.003,-0.0119,-0.0156,-0.0222,-0.0223,-0.0259,-0.0263,-0.0224,-0.0224,-0.0224,-0.0224,-0.0224,0,0.0349,0.0366,0.0354,0.0366,0.0402,0.0379,0.0413,0.0398,0.0392,0.0415,0.0334,0.0341,0.0201,0.0133,0.0016,-0.01,-0.0096,-0.0209,-0.0233,-0.0238,-0.0238,-0.0238,-0.0239,-0.0226,-0.0225,-0.0225,-0.0225,0,0.0399,0.0389,0.0414,0.0418,0.0425,0.0451,0.0472,0.0493,0.0477,0.0506,0.0503,0.044,0.0357,0.0215,0.0068,-0.0045,-0.0167,-0.0213,-0.0201,-0.0223,-0.0263,-0.026,-0.0292,-0.0293,-0.0293,-0.0293,-0.0293,0,0.0425,0.0442,0.046,0.0482,0.0488,0.0519,0.0546,0.0539,0.0567,0.0576,0.0601,0.0537,0.0508,0.0292,0.0077,-0.0121,-0.0146,-0.0256,-0.029,-0.0248,-0.0269,-0.0266,-0.0263,-0.0318,-0.0318,-0.0318,-0.0318,0,0.0477,0.0484,0.0502,0.0547,0.058,0.0617,0.0655,0.0693,0.07,0.0725,0.0763,0.0744,0.0548,0.0339,0.0063,-0.0073,-0.0226,-0.0268,-0.0231,-0.029,-0.0273,-0.0293,-0.029,-0.0321,-0.0321,-0.0321,-0.0321,-0.0321,0.052,0.0544,0.0568,0.061,0.0651,0.0707,0.0741,0.0752,0.0804,0.0787,0.0836,0.0752,0.0579,0.0183,-0.0002,-0.023,-0.0227,-0.0331,-0.033,-0.0329,-0.0315,-0.0298,-0.0348,-0.0348,-0.0348,-0.0348,-0.0348,0,0.0543,0.0585,0.0627,0.0674,0.0691,0.0733,0.0806,0.0778,0.0796,0.078,0.0764,0.0586,0.0384,0.0181,-0.0161,-0.0329,-0.0348,-0.0381,-0.0378,-0.0374,-0.0371,-0.0359,-0.0405,-0.0405,-0.0405,-0.0406,0,0,0.0557,0.0589,0.0601,0.0661,0.0718,0.0723,0.076,0.0729,0.0691,0.063,0.0575,0.0521,0.0368,0.0113,-0.0092,-0.0265,-0.029,-0.0298,-0.0241,-0.0213,-0.0208,-0.0335,-0.0311,0,0,0,0,0]}],[{"header":{"parameterUnit":"m.s-1","parameterCategory":2,"la1":30.2991,"la2":30.254,"lo1":-89.0895,"lo2":-89.0444,"dy":0.0017,"dx":0.0017,"nx":28,"ny":28,"refTime":"2024-03-03T09:00:00:Z","depth":"4","parameterNumber":2,"parameterNumberName":"U-component_of_CURRENTS"},"data":[0,0,0,0,0,0,0,0,0,0,0,0,0,0,0,0,0,0,0,0,0,0,0,0,0,0,0,0,0,0,0,0,0,0,0,0,0,0,0,0,0,0,0,0,0,0,0,0,0,0,0,0,0,0,0,0,0,0,0.1479,0.148,0,0.1531,0.1532,0.1532,0.1571,0.1571,0.1572,0.1573,0.1622,0.1623,0.1623,0,0,0,0,0,0,0,0,0,0,0,0,0,0.1429,0.1429,0.1479,0.148,0.1481,0.1531,0.1532,0.1532,0.1571,0.1571,0.1572,0.1573,0.1622,0.1623,0.1623,0,0,0,0,0,0,0,0,0,0,0,0,0,0.1459,0.1429,0.1479,0.1509,0.1512,0.1531,0.1532,0.1532,0.157,0.1571,0.1572,0.1573,0.1622,0.1623,0.1624,0.161,0,0,0.1627,0.1627,0,0,0,0,0,0,0,0,0.1458,0.1461,0.1503,0.1507,0.1511,0.1549,0.1532,0.1559,0.157,0.1545,0.1573,0.1574,0.1599,0.1602,0.1604,0.1612,0.1614,0.1627,0.1627,0.1628,0.1628,0,0,0,0,0,0,0,0.1455,0.1459,0.1496,0.1504,0.1509,0.1526,0.1531,0.1537,0.1563,0.1547,0.1551,0.1562,0.16,0.1603,0.1606,0.1615,0.1627,0.1628,0.1628,0.1629,0.1712,0.1714,0,0,0,0,0,0,0.1454,0.1457,0.1494,0.1498,0.149,0.1526,0.1531,0.1533,0.1563,0.1569,0.1561,0.1564,0.1601,0.1605,0.1608,0.1683,0.1628,0.1629,0.1629,0.1711,0.1713,0.1714,0,0,0,0,0,0,0.1453,0.1456,0.1492,0.1482,0.1488,0.1526,0.1527,0.1533,0.1569,0.1574,0.158,0.1595,0.1602,0.1606,0.1646,0.1682,0.1629,0.163,0.1709,0.1711,0.1713,0.1775,0,0,0,0,0,0,0.1451,0.1455,0.1469,0.1481,0.1489,0.1524,0.1527,0.1534,0.1574,0.1579,0.1605,0.1609,0.1603,0.1644,0.1647,0.1682,0.1631,0.1707,0.171,0.1713,0.1771,0.178,0.1787,0,0,0,0,0,0.1448,0.1459,0.1469,0.1475,0.1502,0.1525,0.153,0.1558,0.1576,0.1594,0.1617,0.161,0.1665,0.1646,0.1649,0.1685,0.1705,0.1709,0.1712,0.1768,0.1778,0.1786,0,0,0,0,0,0,0.1444,0.1465,0.1476,0.1493,0.1518,0.1533,0.156,0.1576,0.1608,0.1623,0.1626,0.1631,0.168,0.1674,0.1653,0.1719,0.1685,0.169,0.1727,0.1736,0.1744,0.1744,0.1632,0,0,0,0,0,0.1449,0.1467,0.1486,0.1506,0.152,0.1546,0.1566,0.1584,0.1608,0.1625,0.1646,0.1669,0.169,0.1707,0.1721,0.1754,0.1754,0.1781,0.1789,0.1795,0.1798,0.1831,0.1842,0.1726,0.1726,0.1726,0,0,0.1454,0.147,0.1482,0.1508,0.1531,0.1555,0.1561,0.1599,0.1628,0.1624,0.1681,0.1698,0.1705,0.1746,0.1767,0.175,0.183,0.18,0.1805,0.1804,0.1836,0.1847,0.1857,0.1728,0.1728,0.1728,0,0,0.1469,0.1489,0.1508,0.153,0.1571,0.1585,0.1604,0.1638,0.1667,0.1711,0.1722,0.1763,0.1794,0.181,0.1819,0.1876,0.187,0.1889,0.1928,0.1961,0.1971,0.1979,0.1999,0.2009,0.1893,0.1893,0.1893,0,0.1479,0.1498,0.152,0.1544,0.1569,0.1603,0.1629,0.1658,0.1705,0.1732,0.174,0.1811,0.1822,0.1869,0.1894,0.1894,0.1908,0.1892,0.1971,0.1979,0.1987,0.2005,0.2015,0.1896,0.1896,0.1895,0.1895,0,0.1497,0.1526,0.1543,0.1582,0.161,0.1642,0.1679,0.1722,0.1762,0.1788,0.1858,0.188,0.192,0.1937,0.1934,0.2,0.1992,0.1977,0.1946,0.2002,0.2018,0.2027,0.1901,0.19,0.1899,0.1898,0,0,0.1481,0.1543,0.1552,0.1577,0.1634,0.1655,0.1713,0.1764,0.1808,0.1864,0.1919,0.1971,0.1995,0.2007,0.202,0.2054,0.2124,0.2047,0.2047,0.2063,0.2198,0.206,0.2056,0.2129,0.2131,0.2133,0.2189,0,0.1492,0.1538,0.1569,0.1622,0.1647,0.1697,0.1743,0.1799,0.1852,0.1914,0.1959,0.2016,0.2018,0.2051,0.2088,0.2116,0.2151,0.211,0.2143,0.2144,0.2011,0.2063,0.2139,0.2196,0.2198,0.2199,0.22,0,0.149,0.1525,0.1574,0.164,0.1657,0.1699,0.178,0.1828,0.1915,0.1958,0.2026,0.2061,0.2134,0.2121,0.2202,0.218,0.2199,0.2213,0.2215,0.2067,0.2022,0.2126,0.2216,0.2215,0.2214,0.2213,0.2212,0,0.1453,0.1524,0.1566,0.1589,0.1669,0.1712,0.1765,0.1849,0.1894,0.1999,0.2041,0.2122,0.2176,0.2217,0.2257,0.2241,0.2331,0.2305,0.2196,0.2187,0.2267,0.2257,0.2358,0.2358,0.2358,0.2358,0.2358,0,0.1431,0.1468,0.156,0.1581,0.1637,0.1705,0.1774,0.1838,0.1929,0.1978,0.2068,0.2112,0.2207,0.2263,0.2282,0.2266,0.2354,0.2208,0.2193,0.2292,0.2285,0.2273,0.2263,0.236,0.236,0.2359,0.2359,0,0.1376,0.1437,0.149,0.1587,0.1621,0.1665,0.177,0.1813,0.1913,0.1982,0.202,0.2131,0.2197,0.2265,0.2338,0.2283,0.2289,0.2263,0.2373,0.2363,0.2116,0.2109,0.2134,0.2129,0.2126,0.2122,0.212,0,0.1348,0.1372,0.1481,0.1514,0.1565,0.1642,0.1687,0.1795,0.1835,0.1971,0.1989,0.2098,0.2156,0.214,0.2231,0.2251,0.223,0.2217,0.2153,0.2111,0.2095,0.2093,0.209,0.2114,0.2113,0.2112,0.2111,0,0.1294,0.1348,0.1392,0.1461,0.152,0.1567,0.1644,0.1657,0.1774,0.1877,0.1899,0.1932,0.2001,0.2048,0.2085,0.2098,0.2212,0.2177,0.2184,0.2124,0.2087,0.2075,0.2076,0.2098,0.21,0.2101,0.2102,0,0.1258,0.1274,0.1343,0.139,0.1458,0.1475,0.1523,0.1559,0.1605,0.1741,0.175,0.1863,0.1973,0.1971,0.2007,0.2006,0.1971,0.1901,0.1922,0.1937,0.1848,0.1772,0.1676,0,0,0,0,0,0.1213,0.1222,0.1264,0.1304,0.1365,0.1404,0.1483,0.1532,0.1638,0.1601,0.1663,0.1711,0.175,0.1819,0.1779,0.1945,0.1997,0.1891,0.1932,0.2027,0.2041,0.1956,0,0,0,0,0,0,0.1182,0.1222,0.1233,0.1223,0.1236,0.1286,0.1333,0.1405,0.1384,0.1497,0.1524,0.161,0.1678,0.1752,0.1747,0.1769,0.1759,0.1966,0.1961,0.2018,0.2032,0.2044,0.1961,0,0,0,0,0]},{"header":{"parameterUnit":"m.s-1","parameterCategory":2,"la1":30.2991,"la2":30.254,"lo1":-89.0895,"lo2":-89.0444,"dy":0.0017,"dx":0.0017,"nx":28,"ny":28,"refTime":"2024-03-03T09:00:00:Z","depth":"4","parameterNumber":3,"parameterNumberName":"V-component_of_CURRENTS"},"data":[0,0,0,0,0,0,0,0,0,0,0,0,0,0,0,0,0,0,0,0,0,0,0,0,0,0,0,0,0,0,0,0,0,0,0,0,0,0,0,0,0,0,0,0,0,0,0,0,0,0,0,0,0,0,0,0,0,0,-0.0115,-0.0115,0,-0.0158,-0.0159,-0.016,-0.0192,-0.0193,-0.0193,-0.0193,-0.0263,-0.0264,-0.0266,0,0,0,0,0,0,0,0,0,0,0,0,0,-0.0076,-0.0077,-0.0115,-0.0115,-0.0116,-0.0158,-0.0159,-0.016,-0.0192,-0.0193,-0.0193,-0.0193,-0.0262,-0.0264,-0.0266,0,0,0,0,0,0,0,0,0,0,0,0,0,-0.0104,-0.0077,-0.0115,-0.0137,-0.0139,-0.0158,-0.0159,-0.016,-0.0192,-0.0193,-0.0193,-0.0193,-0.0261,-0.0264,-0.0266,-0.0274,0,0,-0.0274,-0.0275,0,0,0,0,0,0,0,0,-0.0102,-0.0106,-0.0133,-0.0135,-0.0138,-0.017,-0.0171,-0.0199,-0.0192,-0.0173,-0.0193,-0.0194,-0.0233,-0.0238,-0.0246,-0.0277,-0.028,-0.0274,-0.0275,-0.0276,-0.0277,0,0,0,0,0,0,0,-0.01,-0.0104,-0.0133,-0.0134,-0.0137,-0.015,-0.0154,-0.0176,-0.0201,-0.0174,-0.0177,-0.0181,-0.0235,-0.0243,-0.0248,-0.0281,-0.0274,-0.0276,-0.0277,-0.0278,-0.0327,-0.0327,0,0,0,0,0,0,-0.0093,-0.0102,-0.0131,-0.0134,-0.012,-0.015,-0.0155,-0.016,-0.0201,-0.0207,-0.018,-0.0182,-0.0239,-0.0245,-0.025,-0.026,-0.0276,-0.0279,-0.028,-0.0327,-0.0327,-0.0327,0,0,0,0,0,0,-0.0092,-0.0095,-0.0129,-0.0119,-0.0124,-0.0151,-0.0155,-0.016,-0.0171,-0.0205,-0.0212,-0.0185,-0.024,-0.0247,-0.0268,-0.0263,-0.028,-0.0282,-0.0328,-0.0327,-0.0327,-0.028,0,0,0,0,0,0,-0.0091,-0.0094,-0.0096,-0.0118,-0.0124,-0.0139,-0.0155,-0.0161,-0.0172,-0.0175,-0.0211,-0.0218,-0.0241,-0.0264,-0.027,-0.0266,-0.0284,-0.0328,-0.0327,-0.0327,-0.0281,-0.0278,-0.0275,0,0,0,0,0,-0.0089,-0.009,-0.0096,-0.01,-0.0126,-0.0139,-0.0143,-0.0164,-0.0172,-0.0175,-0.0198,-0.0217,-0.0267,-0.0266,-0.0273,-0.027,-0.0328,-0.0328,-0.0327,-0.0283,-0.0278,-0.0275,0,0,0,0,0,0,-0.0077,-0.0094,-0.0101,-0.0108,-0.0121,-0.0144,-0.0149,-0.0161,-0.0181,-0.0185,-0.0216,-0.0224,-0.024,-0.0262,-0.026,-0.0283,-0.03,-0.0301,-0.0264,-0.026,-0.0257,-0.0242,-0.0286,0,0,0,0,0,-0.0074,-0.0076,-0.0096,-0.01,-0.0106,-0.0126,-0.0134,-0.0147,-0.0166,-0.0175,-0.0199,-0.0224,-0.0244,-0.0257,-0.0279,-0.0292,-0.031,-0.0295,-0.0292,-0.0289,-0.0282,-0.0302,-0.0299,-0.0326,-0.0326,-0.0326,0,0,-0.0069,-0.0079,-0.0081,-0.0097,-0.0109,-0.011,-0.0132,-0.0142,-0.0141,-0.018,-0.0188,-0.0214,-0.0245,-0.0259,-0.0268,-0.0276,-0.0291,-0.0288,-0.0285,-0.028,-0.0301,-0.0299,-0.0296,-0.0326,-0.0326,-0.0326,0,0,-0.0057,-0.007,-0.0067,-0.0074,-0.0089,-0.01,-0.01,-0.0121,-0.013,-0.0142,-0.0167,-0.0186,-0.022,-0.0237,-0.0251,-0.0243,-0.0272,-0.0254,-0.0225,-0.0244,-0.0242,-0.024,-0.0258,-0.0259,-0.0252,-0.0252,-0.0252,0,-0.0051,-0.0051,-0.0068,-0.0066,-0.0066,-0.0092,-0.0085,-0.0097,-0.012,-0.0123,-0.0139,-0.0179,-0.0208,-0.0218,-0.0217,-0.0234,-0.0251,-0.0237,-0.0239,-0.0238,-0.0237,-0.0256,-0.0257,-0.0249,-0.025,-0.025,-0.025,0,-0.0036,-0.0035,-0.0033,-0.0035,-0.0038,-0.0038,-0.0052,-0.0057,-0.0071,-0.0084,-0.0099,-0.0136,-0.0158,-0.0172,-0.0194,-0.0199,-0.0215,-0.0231,-0.0246,-0.0231,-0.0252,-0.0254,-0.0246,-0.0247,-0.0248,-0.0248,0,0,-0.0022,-0.0022,-0.0021,-0.0012,-0.0021,-0.002,-0.0016,-0.0019,-0.0011,-0.0041,-0.0035,-0.0075,-0.0096,-0.0113,-0.0143,-0.0162,-0.0173,-0.0191,-0.0193,-0.0203,-0.0215,-0.0215,-0.0217,-0.0191,-0.0191,-0.0191,-0.0232,0,-0.0004,0.001,0.0007,0.0028,0.0034,0.0024,0.0036,0.0031,0.0017,0.0016,-0.0022,-0.0033,-0.0073,-0.0082,-0.0107,-0.0154,-0.0176,-0.016,-0.0233,-0.0235,-0.0232,-0.0218,-0.0191,-0.0234,-0.0234,-0.0234,-0.0235,0,0.0012,0.0021,0.0043,0.0065,0.0069,0.008,0.0097,0.0102,0.0092,0.0082,0.0062,0.0032,0.0003,-0.0035,-0.0104,-0.0093,-0.0148,-0.019,-0.0193,-0.0209,-0.0238,-0.0254,-0.0238,-0.0238,-0.0238,-0.0237,-0.0237,0,0.003,0.0049,0.007,0.0075,0.0094,0.0109,0.0119,0.0121,0.0136,0.0123,0.0129,0.0086,0.007,-0.0001,-0.0086,-0.0096,-0.0165,-0.0191,-0.0243,-0.0244,-0.0254,-0.0255,-0.0241,-0.0241,-0.0241,-0.0241,-0.0241,0,0.0048,0.0066,0.0082,0.0094,0.0131,0.0135,0.017,0.0173,0.0185,0.0208,0.0164,0.017,0.0078,0.0027,-0.0062,-0.0151,-0.0148,-0.0232,-0.0252,-0.0233,-0.0232,-0.0255,-0.0256,-0.0243,-0.0242,-0.0242,-0.0242,0,0.0061,0.007,0.0098,0.0125,0.0139,0.0164,0.0206,0.0229,0.0237,0.0264,0.0265,0.0237,0.0173,0.0075,-0.0035,-0.011,-0.0203,-0.024,-0.0203,-0.0222,-0.0278,-0.0276,-0.0299,-0.0299,-0.0299,-0.0299,-0.03,0,0.0066,0.0081,0.0119,0.0141,0.0154,0.0192,0.0223,0.0248,0.0275,0.0304,0.0321,0.0283,0.0245,0.0101,-0.0011,-0.0171,-0.0203,-0.0253,-0.0275,-0.0265,-0.0283,-0.028,-0.0278,-0.03,-0.03,-0.03,-0.03,0,0.0074,0.0088,0.0109,0.0153,0.0189,0.0233,0.0277,0.0305,0.034,0.0356,0.0368,0.0301,0.0234,0.0113,-0.0006,-0.0126,-0.022,-0.0256,-0.0257,-0.0279,-0.0267,-0.0284,-0.0281,-0.0301,-0.0301,-0.0301,-0.0301,0,0.0077,0.009,0.0119,0.0159,0.0205,0.0252,0.0282,0.0321,0.0355,0.039,0.0396,0.0325,0.0293,0.0137,0.0026,-0.0086,-0.0128,-0.018,-0.0185,-0.0186,-0.0146,-0.0115,-0.0111,0,0,0,0,0,0.0075,0.0086,0.0121,0.0162,0.021,0.0236,0.0308,0.0336,0.0381,0.0394,0.0397,0.0334,0.0193,0.0142,0.0028,-0.0002,-0.0162,-0.0141,-0.0229,-0.0305,-0.0304,-0.0278,0,0,0,0,0,0,0.007,0.0096,0.0112,0.0156,0.018,0.0235,0.0278,0.0315,0.0328,0.0362,0.0295,0.0283,0.0148,0.0247,0.0015,-0.0016,-0.0091,-0.0198,-0.0201,-0.0306,-0.0305,-0.0304,-0.0276,0,0,0,0,0]}]]